Location: Bailleul
(50.3375°N, 2.8513°E)
Time: 15:19:16
(UTC+00:00)

Resurs 01 Rocket - Pass Details

Date: 16 June 2021
Orbit: 635 x 643 km, 97.9° (Epoch: 04 August)

Event Time Altitude Azimuth Distance (km) Brightness Sun altitude
Rises 21:04:13 0° 192° (SSW) 2,923 4.6 -7.7°
Reaches altitude 10° 21:06:38 10° 203° (SSW) 2,019 3.9 -8.0°
Maximum altitude 21:10:30 30° 265° (W) 1,152 3.3 -8.3°
Drops below altitude 10° 21:14:24 10° 327° (NNW) 2,034 5.9 -8.7°
Sets 21:16:51 0° 338° (NNW) 2,948 6.9 -8.9°
